Weather History for KJQF - December, 2012

Change the Weather History Date:

Sunday, December 23, 2012

  Actual Average (KCLT) Record (KCLT)
Temperature  
Mean Temperature 38 °F 41 °F  
Max Temperature 53 °F 51 °F 73 °F (1990)
Min Temperature 23 °F 31 °F 8 °F (1989)
Degree Days  
Heating Degree Days 27 24  
Month to date heating degree days 504  
Since 1 July heating degree days 1140  
Cooling Degree Days 0 0  
Month to date cooling degree days 0  
Year to date cooling degree days 1517  
Moisture  
Dew Point 21 °F    
Average Humidity 58    
Maximum Humidity 86    
Minimum Humidity 19    
Precipitation  
Precipitation 0.00 in 0.11 in 2.12 in (1941)
Month to date precipitation 2.42  
Year to date precipitation 40.80  
Snow  
Snow 0.00 in 0.00 in 2.60 in (1993)
Month to date snowfall 0.1  
Since 1 July snowfall 0.2  
Snow Depth -    
Sea Level Pressure  
Sea Level Pressure 30.12 in    
Wind  
Wind Speed 1 mph (SW)    
Max Wind Speed 8 mph    
Max Gust Speed -    
Visibility 10 miles    
Events      
T = Trace of Precipitation, MM = Missing Value Source: NWS Daily Summary

Daily Weather History Graph

Daily Weather History Graph

Search for Another Location

Airport or City:

Trip Planner

Search our weather history database for the weather conditions in past years. The results will help you decide how hot, cold, wet, or windy it might be!

Date:

Astronomy

Dec. 23, 2012 Rise Set
Actual Time 7:29 AM EST 5:15 PM EST
Civil Twilight 7:00 AM EST 5:43 PM EST
Nautical Twilight 6:28 AM EST 6:15 PM EST
Astronomical Twilight 5:57 AM EST 6:46 PM EST
Moon 2:01 PM EST (12/23) 3:14 AM EST (12/23)
Length of Visible Light 10h 42m
Length of Day
9h 46m
Waxing Gibbous, 81% of the Moon is Illuminated
Dec 23
Waxing Gibbous
Dec 28
Full
Jan 4
Last Quarter
Jan 11
New
Jan 18
First Quarter

Hourly Weather History & Observations

Time (EST) Temp. Windchill Dew Point Humidity Pressure Visibility Wind Dir Wind Speed Gust Speed Precip Events Conditions
12:15 AM 28.4 °F - 17.6 °F 64% 30.14 in 10.0 mi Calm Calm - N/A   Clear
12:35 AM 28.4 °F - 17.6 °F 64% 30.14 in 10.0 mi Calm Calm - N/A   Clear
12:55 AM 28.4 °F - 17.6 °F 64% 30.14 in 10.0 mi Calm Calm - N/A   Clear
1:15 AM 30.2 °F - 17.6 °F 60% 30.14 in 10.0 mi Calm Calm - N/A   Clear
1:35 AM 28.4 °F - 19.4 °F 69% 30.14 in 10.0 mi Calm Calm - N/A   Clear
1:55 AM 28.4 °F - 19.4 °F 69% 30.14 in 10.0 mi Calm Calm - N/A   Clear
2:35 AM 24.8 °F - 19.4 °F 80% 30.14 in 10.0 mi Calm Calm - N/A   Clear
3:15 AM 28.4 °F - 19.4 °F 69% 30.16 in 10.0 mi Calm Calm - N/A   Clear
3:35 AM 26.6 °F - 19.4 °F 74% 30.16 in 10.0 mi Calm Calm - N/A   Clear
3:55 AM 26.6 °F - 19.4 °F 74% 30.15 in 10.0 mi Calm Calm - N/A   Clear
4:15 AM 26.6 °F - 19.4 °F 74% 30.14 in 10.0 mi Calm Calm - N/A   Clear
4:35 AM 24.8 °F - 19.4 °F 80% 30.14 in 10.0 mi Calm Calm - N/A   Clear
4:55 AM 24.8 °F - 19.4 °F 80% 30.13 in 10.0 mi Calm Calm - N/A   Clear
5:15 AM 24.8 °F - 19.4 °F 80% 30.14 in 10.0 mi Calm Calm - N/A   Clear
5:35 AM 24.8 °F - 19.4 °F 80% 30.15 in 10.0 mi Calm Calm - N/A   Clear
5:55 AM 24.8 °F - 19.4 °F 80% 30.16 in 10.0 mi Calm Calm - N/A   Clear
6:15 AM 24.8 °F - 19.4 °F 80% 30.15 in 10.0 mi Calm Calm - N/A   Clear
6:35 AM 23.0 °F - 19.4 °F 86% 30.17 in 10.0 mi Calm Calm - N/A   Clear
6:55 AM 24.8 °F - 19.4 °F 80% 30.17 in 10.0 mi Calm Calm - N/A   Clear
7:55 AM 24.8 °F - 19.4 °F 80% 30.17 in 10.0 mi Calm Calm - N/A   Clear
8:55 AM 28.4 °F - 21.2 °F 74% 30.18 in 10.0 mi Calm Calm - N/A   Clear
9:55 AM 35.6 °F - 21.2 °F 56% 30.18 in 10.0 mi Calm Calm - N/A   Clear
11:55 AM 48.2 °F - 10.4 °F 22% 30.13 in 10.0 mi SSW 4.6 mph - N/A   Clear
1:55 PM 53.6 °F - 12.2 °F 19% 30.09 in 10.0 mi SW 5.8 mph - N/A   Clear
2:55 PM 53.6 °F - 14.0 °F 21% 30.07 in 10.0 mi SW 4.6 mph - N/A   Clear
3:55 PM 53.6 °F - 15.8 °F 22% 30.07 in 10.0 mi SSW 5.8 mph - N/A   Clear
4:55 PM 51.8 °F - 15.8 °F 24% 30.08 in 10.0 mi Calm Calm - N/A   Clear
6:55 PM 44.6 °F - 24.8 °F 46% 30.07 in 10.0 mi Calm Calm - N/A   Mostly Cloudy
7:55 PM 44.6 °F - 23.0 °F 43% 30.07 in 10.0 mi Calm Calm - N/A   Mostly Cloudy
8:15 PM 44.6 °F - 26.6 °F 49% 30.07 in 10.0 mi Calm Calm - N/A   Overcast
8:35 PM 46.4 °F - 26.6 °F 46% 30.07 in 10.0 mi Calm Calm - N/A   Overcast
8:55 PM 46.4 °F - 26.6 °F 46% 30.07 in 10.0 mi Calm Calm - N/A   Overcast
9:15 PM 46.4 °F 44.3 °F 30.2 °F 53% 30.07 in 10.0 mi SSW 4.6 mph - N/A   Overcast
9:35 PM 50.0 °F - 28.4 °F 43% 30.08 in 10.0 mi SW 5.8 mph - N/A   Mostly Cloudy
9:55 PM 50.0 °F - 28.4 °F 43% 30.08 in 10.0 mi SSW 5.8 mph - N/A   Scattered Clouds
10:15 PM 50.0 °F - 28.4 °F 43% 30.08 in 10.0 mi SW 5.8 mph - N/A   Scattered Clouds
10:55 PM 51.8 °F - 28.4 °F 41% 30.07 in 10.0 mi SW 8.1 mph - N/A   Mostly Cloudy
11:15 PM 51.8 °F - 28.4 °F 41% 30.08 in 10.0 mi SW 5.8 mph - N/A   Overcast
11:35 PM 50.0 °F - 30.2 °F 47% 30.07 in 10.0 mi SW 5.8 mph - N/A   Mostly Cloudy
11:55 PM 50.0 °F - 30.2 °F 47% 30.07 in 10.0 mi SW 5.8 mph - N/A   Mostly Cloudy